Regional Weather Roundup
Issued by NWS

Home | Current Version | Previous Version | Text Only | Print | Product List | Glossary On
Versions: 1 2 3 4 5 6 7 8 9 10 11 12 13 14 15 16 17 18 19 20 21 22 23 24 25 26 27 28 29 30 31 32 33 34 35 36 37 38 39 40 41 42 43 44 45 46 47 48 49 50
000
ASUS43 KOAX 262110
RWRNE

WEATHER ROUNDUP FOR NEBRASKA
NATIONAL WEATHER SERVICE OMAHA NE
400 PM CDT THU APR 26 2018

NOTES: SATELLITE DATA IS BEING USED TO AUGMENT CLOUD COVER ABOVE
       12000 FEET.
       "FAIR" INDICATES FEW OR NO CLOUDS BELOW 12,000 FEET WITH NO
       SIGNIFICANT WEATHER AND/OR OBSTRUCTIONS TO VISIBILITY.


NEZ001>004-019>022-054>056-262200-
NEBRASKA PANHANDLE

CITY           SKY/WX    TMP DP  RH WIND       PRES   REMARKS
SCOTTSBLUFF    FAIR      62  29  28 NW13G23   30.22F
ALLIANCE       FAIR      58  30  34 N14       30.20F
CHADRON        FAIR      62  28  27 NW9       30.19F
GORDON         FAIR      61  28  29 N13G24    30.18F
KIMBALL        PTSUNNY   56  25  29 N15G22    30.25F
SIDNEY         PTSUNNY   62  27  26 N15G25    30.22F
$$

NEZ057>060-069>072-079>082-262200-
SOUTHWEST NEBRASKA

CITY           SKY/WX    TMP DP  RH WIND       PRES   REMARKS
NORTH PLATTE   FAIR      64  28  25 NE23G33   30.15S
IMPERIAL       FAIR      64  27  24 N18G31    30.17F
LEXINGTON      FAIR      64  30  27 N20G29    30.12S
MCCOOK         FAIR      65  30  27 N25G35    30.12R
OGALLALA       FAIR      63  28  26 N17G26    30.18F
$$

NEZ005>010-023>029-035>040-094-262200-
NORTH CENTRAL NEBRASKA

CITY           SKY/WX    TMP DP  RH WIND       PRES   REMARKS
VALENTINE      FAIR      64  26  23 N17       30.14F
AINSWORTH      FAIR      60  28  29 N24G30    30.15S
BROKEN BOW     FAIR      63  28  26 N25G39    30.11S
O`NEILL        FAIR      63  27  25 N18G30    30.11F
ORD            FAIR      62  28  27 N21G36    30.09S
THEDFORD       FAIR      62  28  27 N21G29    30.15F
$$

NEZ041-046>049-061>064-073>077-083>087-262200-
SOUTH CENTRAL NEBRASKA

CITY           SKY/WX    TMP DP  RH WIND       PRES   REMARKS
GRAND ISLAND   FAIR      65  30  27 N24G38    30.06S
AURORA         FAIR      65  31  28 N30G37    30.04S
HASTINGS       FAIR      65  32  29 N29G38    30.06R
HEBRON         FAIR      66  40  39 N14G21    30.01S
HOLDREGE       FAIR      63  33  32 N21G35    30.09S
KEARNEY        FAIR      63  27  25 N28G37    30.09R
YORK             N/A     66  36  32 N30G41    30.02R
$$

NEZ011>018-030>034-042>045-262200-
NORTHEAST NEBRASKA

CITY           SKY/WX    TMP DP  RH WIND       PRES   REMARKS
NORFOLK        FAIR      64  27  24 N26G33    30.03R
ALBION         FAIR      63  32  30 N20G29    30.07S
BLAIR          FAIR      67  39  36 N24G35    29.95F
COLUMBUS       FAIR      66  32  28 NW25G33   30.03S
FREMONT        FAIR      69  38  32 N18G28    29.99S
TEKAMAH        FAIR      68  38  33 N28G40    29.96F
WAYNE          FAIR      64  25  23 N22G31    30.03S
$$

NEZ050>053-065>068-078-088>093-262200-
SOUTHEAST NEBRASKA

CITY           SKY/WX    TMP DP  RH WIND       PRES   REMARKS
LINCOLN        FAIR      70  39  32 N20G39    29.98F
OMAHA EPPLEY   FAIR      71  40  32 N20G29    29.93F
BEATRICE       FAIR      68  44  41 NW22      29.97R
FALLS CITY     FAIR      66  42  41 W13       29.94F
NEBRASKA CITY  FAIR      68  43  40 NW21G26   29.94S
PLATTSMOUTH    FAIR      69  40  34 NW14G21   29.94F
$$

NEZ044-045-051>053-067-262200-
OMAHA AREA

CITY           SKY/WX    TMP DP  RH WIND       PRES   REMARKS
OMAHA EPPLEY   FAIR      71  40  32 N20G29    29.93F
BLAIR          FAIR      67  39  36 N24G35    29.95F
FREMONT        FAIR      69  38  32 N18G28    29.99S
MILLARD        FAIR      70  41  35 N8G18     29.95F
OFFUTT AFB     FAIR      69  40  34 N16G24    29.94S
PLATTSMOUTH    FAIR      69  40  34 NW14G21   29.94F
WAHOO          FAIR      70  33  26 N22G38    29.97S
$$




USA.gov is the U.S. government's official web portal to all federal, state and local government web resources and services.